[[{"header":{"parameterUnit":"m.s-1","parameterCategory":1,"la1":30.2991,"la2":30.254,"lo1":-89.0895,"lo2":-89.0444,"dy":0.0017,"dx":0.0017,"nx":28,"ny":28,"refTime":"2025-07-18T03:00:00:Z","depth":0,"parameterNumber":2,"parameterNumberName":"U-component_of_WINDS"},"data":[0,0,0,0,0,0,0,0,0,0,0,0,0,0,0,0,0,0,0,0,0,0,0,0,0,0,0,0,0,0,0,0,0,0,0,0,0,0,0,0,0,0,0,0,0,0,0,0,0,0,0,0,0,0,0,0,0,0,2.2137,2.2137,0,2.2157,2.2157,2.2157,2.2094,2.2092,2.209,2.2088,2.2112,2.2114,2.2117,0,0,0,0,0,0,0,0,0,0,0,0,0,2.2043,2.2045,2.2137,2.2137,2.2137,2.2157,2.2157,2.2157,2.2094,2.2092,2.209,2.2087,2.2111,2.2114,2.2117,0,0,0,0,0,0,0,0,0,0,0,0,0,2.2075,2.2045,2.2137,2.2108,2.2106,2.2157,2.2157,2.2158,2.2095,2.2092,2.2089,2.2086,2.211,2.2114,2.2117,2.2198,0,0,2.2128,2.213,0,0,0,0,0,0,0,0,2.2074,2.2079,2.2112,2.211,2.2107,2.212,2.2133,2.2171,2.2096,2.2099,2.2088,2.2085,2.2117,2.212,2.213,2.2199,2.22,2.2129,2.2131,2.2133,2.2134,0,0,0,0,0,0,0,2.2072,2.2078,2.2145,2.2112,2.211,2.2094,2.2095,2.214,2.2124,2.2098,2.2094,2.2097,2.2115,2.2127,2.213,2.2201,2.2129,2.2132,2.2134,2.2136,2.2332,2.2334,0,0,0,0,0,0,2.2073,2.2076,2.2144,2.2145,2.2083,2.2098,2.21,2.2119,2.2124,2.2121,2.2099,2.2094,2.2122,2.2126,2.2131,2.2222,2.2132,2.2136,2.2138,2.2329,2.2332,2.2335,0,0,0,0,0,0,2.2071,2.2079,2.2143,2.2109,2.2116,2.2103,2.2125,2.2121,2.2132,2.2124,2.2121,2.2114,2.212,2.2126,2.218,2.2222,2.2138,2.2141,2.2325,2.233,2.2334,2.2407,0,0,0,0,0,0,2.2069,2.2079,2.211,2.2111,2.2118,2.2193,2.2128,2.2123,2.2138,2.2131,2.2137,2.2135,2.2118,2.2175,2.2184,2.2226,2.2144,2.2321,2.2327,2.2332,2.2401,2.2414,2.2425,0,0,0,0,0,2.2066,2.2132,2.2112,2.2121,2.2157,2.2195,2.22,2.2178,2.2142,2.2172,2.2166,2.2135,2.2217,2.2181,2.2191,2.2234,2.2318,2.2325,2.2332,2.2396,2.2411,2.2424,0,0,0,0,0,0,2.2139,2.2132,2.211,2.2178,2.2187,2.2185,2.2223,2.2196,2.2217,2.2209,2.2182,2.2184,2.2242,2.2244,2.2205,2.231,2.2261,2.227,2.2307,2.2321,2.2333,2.233,2.2147,0,0,0,0,0,2.2163,2.2194,2.2186,2.2248,2.2253,2.2237,2.2253,2.2235,2.2244,2.2248,2.2247,2.2257,2.2284,2.2303,2.2329,2.2401,2.24,2.2435,2.2447,2.2457,2.2464,2.2499,2.2513,2.2358,2.2358,2.2358,0,0,2.2213,2.2213,2.2235,2.2262,2.2267,2.23,2.2241,2.2279,2.2302,2.2254,2.2304,2.2304,2.2313,2.2376,2.2404,2.2379,2.2507,2.2466,2.2473,2.2476,2.2507,2.2522,2.2535,2.2362,2.2361,2.2361,0,0,2.232,2.2325,2.2373,2.2379,2.2386,2.2374,2.2386,2.2387,2.2383,2.2433,2.2396,2.2424,2.2473,2.248,2.249,2.2595,2.2566,2.2604,2.2665,2.2699,2.2711,2.2722,2.2756,2.2769,2.2612,2.2612,2.2613,0,2.2382,2.2429,2.2402,2.2441,2.2453,2.2409,2.2457,2.2464,2.248,2.2489,2.2461,2.2518,2.2522,2.2584,2.2609,2.262,2.2631,2.2603,2.2712,2.2722,2.2732,2.2764,2.2777,2.2617,2.2616,2.2616,2.2615,0,2.2502,2.2535,2.2573,2.2587,2.2603,2.2647,2.2627,2.2646,2.2626,2.2617,2.2666,2.2669,2.2691,2.2705,2.2687,2.2763,2.2747,2.2716,2.2666,2.2751,2.2781,2.2793,2.2623,2.2622,2.262,2.2619,0,0,2.2657,2.2652,2.2667,2.267,2.2674,2.2699,2.2739,2.276,2.2775,2.2788,2.2819,2.286,2.2829,2.2841,2.2823,2.2853,2.2931,2.2818,2.2817,2.2836,2.3011,2.3033,2.3048,2.2913,2.2915,2.2917,2.3009,0,2.2759,2.2827,2.2803,2.2872,2.29,2.2856,2.2891,2.2897,2.2889,2.2911,2.2903,2.293,2.289,2.2896,2.2924,2.2916,2.2966,2.2909,2.294,2.2942,2.2936,2.3064,2.3087,2.3175,2.3021,2.3023,2.3025,0,2.2888,2.2902,2.2973,2.2967,2.2978,2.301,2.3024,2.3047,2.3051,2.3043,2.3053,2.3028,2.3066,2.3017,2.3068,2.3029,2.3041,2.3038,2.3041,2.3042,2.2987,2.3065,2.3203,2.3215,2.3043,2.3042,2.3041,0,2.2989,2.3026,2.3072,2.3077,2.3073,2.3095,2.3094,2.3096,2.3108,2.3121,2.3128,2.3147,2.3156,2.317,2.315,2.3117,2.3202,2.3153,2.3195,2.3195,2.3214,2.3212,2.3352,2.3226,2.3225,2.3225,2.3225,0,2.3105,2.3149,2.3116,2.3145,2.3192,2.3163,2.3211,2.3206,2.3207,2.3232,2.3197,2.3222,2.3194,2.3216,2.3201,2.3243,2.3249,2.3242,2.3237,2.3244,2.3244,2.3249,2.3241,2.3229,2.3228,2.3227,2.3227,0,2.3226,2.3206,2.3252,2.3243,2.3241,2.3276,2.3268,2.3293,2.3281,2.3314,2.332,2.3302,2.3325,2.3306,2.3331,2.332,2.3375,2.3363,2.3372,2.3368,2.341,2.3405,2.3556,2.3573,2.3438,2.344,2.3441,0,2.3299,2.3332,2.3324,2.3338,2.3338,2.3361,2.3372,2.3345,2.3358,2.3363,2.3387,2.3407,2.3421,2.3461,2.345,2.3467,2.3454,2.3505,2.3456,2.346,2.345,2.3447,2.3449,2.3515,2.3516,2.3518,2.3519,0,2.3431,2.3418,2.3435,2.3448,2.3461,2.347,2.3477,2.349,2.3462,2.3478,2.35,2.3511,2.3533,2.3553,2.3566,2.3565,2.3537,2.3534,2.3544,2.355,2.3553,2.3549,2.3396,2.3531,2.3529,2.3529,2.3528,2.3527,2.3528,2.3553,2.355,2.3569,2.357,2.3576,2.3597,2.3587,2.3604,2.3619,2.3602,2.3628,2.3629,2.3642,2.3645,2.3664,2.3643,2.3659,2.3662,2.3666,2.367,2.3552,2.3667,2.3667,2.3667,2.3666,2.3666,0,2.3654,2.3649,2.3667,2.3675,2.3689,2.366,2.3664,2.3678,2.3701,2.3703,2.3717,2.3741,2.3758,2.3748,2.3763,2.378,2.3768,2.3785,2.3782,2.3782,2.369,2.3678,2.3795,2.3795,2.3795,2.3795,2.3795,2.3795,2.3722,2.3761,2.3747,2.3786,2.3781,2.3804,2.3809,2.3813,2.3814,2.3842,2.3855,2.3848,2.3844,2.3858,2.3872,2.3868,2.3874,2.3896,2.3888,2.3802,2.3789,2.3777,2.3765,2.3898,2.3898,2.3977,2.3978,2.3978]},{"header":{"parameterUnit":"m.s-1","parameterCategory":1,"la1":30.2991,"la2":30.254,"lo1":-89.0895,"lo2":-89.0444,"dy":0.0017,"dx":0.0017,"nx":28,"ny":28,"refTime":"2025-07-18T03:00:00:Z","depth":0,"parameterNumber":3,"parameterNumberName":"V-component_of_WINDS"},"data":[0,0,0,0,0,0,0,0,0,0,0,0,0,0,0,0,0,0,0,0,0,0,0,0,0,0,0,0,0,0,0,0,0,0,0,0,0,0,0,0,0,0,0,0,0,0,0,0,0,0,0,0,0,0,0,0,0,0,3.7779,3.778,0,3.7806,3.7806,3.7807,3.7749,3.7747,3.7745,3.7744,3.7771,3.7774,3.7776,0,0,0,0,0,0,0,0,0,0,0,0,0,3.7676,3.7678,3.7779,3.778,3.778,3.7806,3.7806,3.7807,3.775,3.7747,3.7745,3.7743,3.7771,3.7774,3.7776,0,0,0,0,0,0,0,0,0,0,0,0,0,3.7714,3.7679,3.7779,3.7754,3.7752,3.7806,3.7806,3.7807,3.775,3.7747,3.7744,3.7742,3.777,3.7773,3.7777,3.7856,0,0,3.7788,3.779,0,0,0,0,0,0,0,0,3.7712,3.7717,3.7758,3.7756,3.7754,3.7771,3.778,3.7823,3.7751,3.7751,3.7744,3.774,3.7774,3.7777,3.7788,3.7857,3.7858,3.7789,3.7791,3.7792,3.7793,0,0,0,0,0,0,0,3.7709,3.7716,3.779,3.7758,3.7756,3.7741,3.7743,3.7788,3.7778,3.7751,3.7747,3.7751,3.7772,3.7785,3.7788,3.7859,3.7788,3.7792,3.7794,3.7795,3.7989,3.7992,0,0,0,0,0,0,3.771,3.7714,3.7789,3.7791,3.7726,3.7745,3.7748,3.7769,3.7777,3.7776,3.7753,3.7748,3.778,3.7784,3.7789,3.7879,3.7792,3.7796,3.7798,3.7986,3.7989,3.7993,0,0,0,0,0,0,3.7708,3.7717,3.7788,3.7751,3.7759,3.775,3.7774,3.7771,3.7783,3.7779,3.7776,3.7768,3.7778,3.7784,3.7838,3.7879,3.7798,3.7801,3.7983,3.7987,3.7991,3.8061,0,0,0,0,0,0,3.7705,3.7717,3.7747,3.7752,3.7761,3.7838,3.7777,3.7773,3.779,3.7783,3.7792,3.7791,3.7776,3.7833,3.7842,3.7883,3.7804,3.7979,3.7985,3.799,3.8055,3.8067,3.8077,0,0,0,0,0,3.7702,3.7767,3.7749,3.7759,3.78,3.784,3.7845,3.7827,3.7793,3.7823,3.782,3.779,3.7873,3.7839,3.7849,3.7891,3.7976,3.7983,3.7989,3.805,3.8065,3.8077,0,0,0,0,0,0,3.7768,3.7767,3.7748,3.7817,3.7829,3.7831,3.7868,3.7844,3.7866,3.7859,3.7836,3.7838,3.7897,3.79,3.7862,3.7966,3.7919,3.7928,3.7961,3.7976,3.7987,3.7984,3.7807,0,0,0,0,0,3.7791,3.7824,3.7822,3.7883,3.789,3.7878,3.7895,3.7879,3.7891,3.7896,3.7897,3.7909,3.7937,3.7957,3.7983,3.8055,3.8054,3.8088,3.81,3.8109,3.8117,3.8151,3.8165,3.8014,3.8014,3.8014,0,0,3.7838,3.7842,3.7865,3.7896,3.7904,3.7937,3.7883,3.7922,3.7946,3.7902,3.7953,3.7954,3.7966,3.8028,3.8056,3.8033,3.8158,3.8117,3.8125,3.8127,3.8159,3.8174,3.8186,3.8019,3.8018,3.8017,0,0,3.7941,3.7948,3.7998,3.8006,3.8017,3.8008,3.802,3.8025,3.8023,3.8074,3.804,3.8069,3.8119,3.8128,3.8139,3.8241,3.8214,3.8251,3.8309,3.8343,3.8355,3.8365,3.8399,3.8412,3.8258,3.8258,3.8259,0,3.7998,3.8048,3.8027,3.8067,3.808,3.8041,3.8089,3.8099,3.8119,3.8128,3.8102,3.8161,3.8167,3.8229,3.8254,3.8265,3.8276,3.8249,3.8355,3.8365,3.8375,3.8407,3.842,3.8263,3.8262,3.8262,3.8261,0,3.8116,3.8151,3.819,3.8208,3.8226,3.8271,3.8255,3.8276,3.8258,3.8251,3.8301,3.8306,3.8331,3.8345,3.8329,3.8404,3.8388,3.8359,3.8311,3.8394,3.8423,3.8435,3.8269,3.8267,3.8266,3.8265,0,0,3.8264,3.8266,3.8281,3.8287,3.8295,3.8321,3.8363,3.8386,3.8403,3.8417,3.845,3.8492,3.8464,3.8476,3.846,3.8491,3.8567,3.8457,3.8457,3.8475,3.8647,3.8667,3.8682,3.855,3.8552,3.8554,3.8645,0,3.8363,3.8434,3.8414,3.8484,3.8514,3.8475,3.8511,3.8519,3.8514,3.8538,3.8532,3.856,3.8523,3.8529,3.8557,3.8552,3.8601,3.8545,3.8578,3.858,3.8575,3.8698,3.8721,3.8807,3.8657,3.8659,3.866,0,3.8489,3.8506,3.8579,3.8578,3.859,3.8622,3.864,3.8664,3.8672,3.8665,3.8678,3.8655,3.8694,3.8647,3.8699,3.8661,3.8673,3.8673,3.8675,3.8676,3.8624,3.87,3.8834,3.8846,3.8678,3.8677,3.8676,0,3.8585,3.8626,3.8674,3.8681,3.8682,3.8705,3.8707,3.8712,3.8726,3.8741,3.8749,3.877,3.8781,3.8797,3.8779,3.8747,3.8833,3.8785,3.8827,3.8827,3.8846,3.8845,3.8981,3.8858,3.8857,3.8857,3.8857,0,3.8697,3.8743,3.8717,3.8746,3.8795,3.8771,3.882,3.8817,3.8821,3.8848,3.8816,3.8842,3.8818,3.8842,3.8829,3.8872,3.8878,3.8873,3.8868,3.8874,3.8875,3.8881,3.8874,3.8861,3.886,3.8859,3.8859,0,3.8813,3.8798,3.8846,3.8842,3.8842,3.8878,3.8874,3.8901,3.8892,3.8926,3.8933,3.8919,3.8945,3.8929,3.8956,3.8947,3.9003,3.8991,3.9,3.8996,3.9038,3.9033,3.9182,3.9199,3.9066,3.9067,3.9068,0,3.8884,3.8918,3.8916,3.8931,3.8934,3.896,3.8973,3.895,3.8965,3.8974,3.8999,3.9021,3.9038,3.9081,3.9073,3.9092,3.908,3.913,3.9083,3.9086,3.9077,3.9075,3.9077,3.914,3.9141,3.9143,3.9144,0,3.9012,3.9002,3.9022,3.9038,3.9054,3.9066,3.9076,3.909,3.9067,3.9085,3.911,3.9123,3.9148,3.917,3.9186,3.9187,3.9161,3.9159,3.9169,3.9175,3.9177,3.9173,3.9024,3.9155,3.9154,3.9153,3.9153,3.9152,3.9106,3.9132,3.9134,3.9156,3.916,3.9169,3.9192,3.9185,3.9205,3.9223,3.9209,3.9238,3.9241,3.926,3.9264,3.9285,3.9265,3.9281,3.9284,3.9288,3.9292,3.9175,3.9289,3.9288,3.9288,3.9288,3.9287,0,3.9229,3.9227,3.9248,3.9261,3.9278,3.9251,3.9259,3.9275,3.93,3.9306,3.9322,3.9349,3.937,3.9362,3.938,3.9399,3.9387,3.9404,3.9402,3.9402,3.9311,3.9299,3.9413,3.9413,3.9413,3.9413,3.9413,3.9413,3.9295,3.9337,3.9327,3.9369,3.9367,3.9394,3.9401,3.9408,3.9412,3.9443,3.9459,3.9454,3.9454,3.9471,3.9488,3.9485,3.9492,3.9513,3.9506,3.9421,3.9409,3.9397,3.9385,3.9515,3.9516,3.9594,3.9595,3.9596]}]]